Date String (YYYY-MM-DD hh:mm:ss) UTC,Instrument flags,absolute air pressure of the measurement (hPa),sample flow rate (lpm),inlet stack bypass flow (lpm),air temperature of the measurement (°C),ambient temperature measured by the external sensor (°C),aerosol sample conditioner tube jacket temperature (°C),OPC LED temperature (°C),internal box temperature (°C),relative humidity of the measurement (%),span deviation,mass concentration of particles derived from Lorenz-Mie calculation of OPC scattering (μg/m³),mass concentration of particles derived from Lorenz-Mie calculation of OPC scattering (μg/m³),mass concentration of particles derived from Lorenz-Mie calculation of OPC scattering (μg/m³)
DateTimeUTC,F1_M11,P_M11,Q1_M11,Q2_M11,T1_M11,T2_M11,T3_M11,T4_M11,T5_M11,U1_M11,ZSPAN_M11,X2_M11,X0_M11,X1_M11
2023-08-25 16:00:00,SystemResetWarning,0838.7,4.98,000.00,029.8,025.2,000.0,037.5,030.0,34.6,0000.0,0004.43,0010.03,0003.72
2023-08-25 16:01:00,SystemResetWarning,0838.6,5.00,000.00,029.9,025.7,000.0,037.5,030.2,34.3,0000.0,0004.46,0009.92,0003.71
2023-08-25 16:02:00,SystemResetWarning,0838.7,5.01,000.00,030.0,026.1,000.0,037.6,030.3,34.1,0000.0,0004.44,0010.07,0003.72
2023-08-25 16:03:00,SystemResetWarning,0838.8,4.99,000.00,030.1,026.4,000.0,037.6,030.3,34.1,0000.0,0004.46,0010.12,0003.72
2023-08-25 16:04:00,SystemResetWarning,0838.7,5.00,000.00,030.1,026.7,000.0,037.7,030.4,34.0,0000.0,0004.41,0010.19,0003.71
2023-08-25 16:05:00,SystemResetWarning,0838.8,5.00,000.00,030.2,027.0,000.0,037.8,030.5,33.9,0000.0,0004.44,0010.46,0003.72
2023-08-25 16:06:00,SystemResetWarning,0838.8,4.99,000.00,030.2,027.1,000.0,037.8,030.6,34.0,0000.0,0004.44,0009.89,0003.74
2023-08-25 16:07:00,SystemResetWarning,0838.8,4.99,000.00,030.2,026.1,000.0,037.7,030.4,33.9,0000.0,0004.48,0009.61,0003.74
2023-08-25 16:08:00,SystemResetWarning,0838.8,5.00,000.00,030.2,024.7,000.0,037.7,030.2,34.1,0000.0,0004.47,0009.69,0003.75
2023-08-25 16:09:00,SystemResetWarning,0838.8,5.01,000.00,030.1,024.3,000.0,037.6,030.0,34.4,0000.0,0004.44,0009.53,0003.74
2023-08-25 16:10:00,SystemResetWarning,0838.8,5.01,000.00,029.9,024.5,000.0,037.7,029.8,34.6,0000.0,0004.42,0009.12,0003.73
2023-08-25 16:11:00,SystemResetWarning,0838.8,5.00,000.00,029.8,024.9,000.0,037.7,029.9,34.7,0000.0,0004.42,0008.83,0003.73
2023-08-25 16:12:00,SystemResetWarning,0838.8,4.99,000.00,029.8,025.3,000.0,037.8,030.0,35.1,0000.0,0004.37,0008.53,0003.73
2023-08-25 16:13:00,SystemResetWarning,0838.8,5.03,000.00,029.9,025.7,000.0,037.8,030.2,34.9,0000.0,0004.37,0008.26,0003.73
2023-08-25 16:14:00,SystemResetWarning,0838.8,4.97,000.00,030.1,026.1,000.0,037.8,030.3,34.7,0000.0,0004.35,0008.12,0003.72
2023-08-25 16:15:00,SystemResetWarning,0838.8,5.02,000.00,030.2,026.5,000.0,037.8,030.4,34.6,0000.0,0004.38,0007.97,0003.72
2023-08-25 16:16:00,SystemResetWarning,0838.8,4.99,000.00,030.2,026.7,000.0,037.9,030.5,34.6,0000.0,0004.30,0007.88,0003.70
2023-08-25 16:17:00,SystemResetWarning,0838.9,4.99,000.00,030.2,027.0,000.0,037.9,030.6,34.6,0000.0,0004.26,0008.10,0003.69
2023-08-25 16:18:00,SystemResetWarning,0838.9,5.00,000.00,030.3,027.0,000.0,037.9,030.6,34.5,0000.0,0004.24,0008.88,0003.68
2023-08-25 16:19:00,SystemResetWarning,0838.9,5.00,000.00,030.3,025.5,000.0,037.8,030.4,34.5,0000.0,0004.22,0009.26,0003.68
2023-08-25 16:20:00,SystemResetWarning,0838.8,5.00,000.00,030.2,024.3,000.0,037.7,030.1,34.7,0000.0,0004.22,0009.42,0003.67
2023-08-25 16:21:00,SystemResetWarning,0838.8,4.99,000.00,030.1,024.1,000.0,037.7,030.0,35.0,0000.0,0004.20,0009.44,0003.67
2023-08-25 16:22:00,SystemResetWarning,0838.8,5.04,000.00,030.0,024.4,000.0,037.8,029.9,35.5,0000.0,0004.18,0009.60,0003.68
2023-08-25 16:23:00,SystemResetWarning,0838.8,4.98,000.00,030.2,024.9,000.0,037.8,030.1,35.5,0000.0,0004.19,0010.33,0003.68
2023-08-25 16:24:00,SystemResetWarning,0838.8,5.00,000.00,030.4,025.3,000.0,037.9,030.3,35.1,0000.0,0004.17,0010.33,0003.68
2023-08-25 16:25:00,SystemResetWarning,0838.9,5.00,000.00,030.7,025.7,000.0,037.9,030.5,34.4,0000.0,0004.17,0010.32,0003.68
2023-08-25 16:26:00,SystemResetWarning,0838.9,4.99,000.00,030.9,026.1,000.0,038.0,030.5,34.2,0000.0,0004.13,0010.22,0003.68
2023-08-25 16:27:00,SystemResetWarning,0838.9,5.02,000.00,031.0,026.4,000.0,038.1,030.6,34.0,0000.0,0004.16,0010.11,0003.69
2023-08-25 16:28:00,SystemResetWarning,0838.9,5.00,000.00,031.1,026.7,000.0,038.2,030.6,34.0,0000.0,0004.17,0009.87,0003.69
2023-08-25 16:29:00,SystemResetWarning,0838.9,5.00,000.00,031.1,026.9,000.0,038.3,030.6,34.0,0000.0,0004.15,0009.25,0003.69
2023-08-25 16:30:00,SystemResetWarning,0838.9,5.00,000.00,031.1,027.1,000.0,038.4,030.7,34.0,0000.6,0004.16,0008.80,0003.69
2023-08-25 16:31:00,SystemResetWarning,0838.9,5.00,000.00,031.1,027.2,000.0,038.5,030.7,33.9,0000.4,0004.17,0008.65,0003.68
2023-08-25 16:32:00,SystemResetWarning,0838.9,5.00,000.00,031.1,027.4,000.0,038.6,030.8,33.9,0000.1,0004.15,0008.47,0003.67
2023-08-25 16:33:00,SystemResetWarning,0838.9,4.99,000.00,031.1,027.1,000.0,038.6,030.8,34.5,0000.6,0004.16,0008.21,0003.67
2023-08-25 16:34:00,SystemResetWarning,0838.9,4.99,000.00,031.1,025.5,000.0,038.5,030.5,34.9,0000.6,0004.16,0007.54,0003.67
2023-08-25 16:35:00,SystemResetWarning,0838.9,5.01,000.00,031.0,024.2,000.0,038.4,030.2,35.3,0000.1,0004.22,0007.63,0003.67
2023-08-25 16:36:00,SystemResetWarning,0838.9,5.02,000.00,031.1,024.0,000.0,038.4,030.2,35.0,0000.9,0004.25,0007.89,0003.66
2023-08-25 16:37:00,SystemResetWarning,0838.9,4.96,000.00,031.1,024.3,000.0,038.4,030.2,34.6,0000.0,0004.30,0008.06,0003.65
2023-08-25 16:38:00,SystemResetWarning,0839.0,5.02,000.00,031.1,024.7,000.0,038.5,030.2,34.6,0000.0,0004.32,0008.34,0003.65
2023-08-25 16:39:00,SystemResetWarning,0839.0,4.98,000.00,031.0,025.2,000.0,038.5,030.3,35.2,0001.3,0004.38,0008.68,0003.66
2023-08-25 16:40:00,SystemResetWarning,0839.0,5.02,000.00,031.1,025.6,000.0,038.6,030.4,35.3,0000.4,0004.39,0008.59,0003.65
2023-08-25 16:41:00,SystemResetWarning,0839.1,5.01,000.00,031.4,026.0,000.0,038.6,030.6,35.0,0000.0,0004.44,0008.71,0003.65
2023-08-25 16:42:00,SystemResetWarning,0839.2,4.97,000.00,031.6,026.3,000.0,038.7,030.8,34.6,0000.0,0004.49,0008.81,0003.66
2023-08-25 16:43:00,SystemResetWarning,0839.2,5.02,000.00,031.7,026.6,000.0,038.8,030.8,34.2,0000.0,0004.51,0008.93,0003.65
2023-08-25 16:44:00,SystemResetWarning,0839.1,5.00,000.00,031.8,026.8,000.0,038.9,030.8,33.6,0000.0,0004.48,0009.00,0003.64
2023-08-25 16:45:00,SystemResetWarning,0839.2,4.98,000.00,031.8,027.0,000.0,039.0,030.9,33.7,0000.0,0004.48,0009.65,0003.66
2023-08-25 16:46:00,SystemResetWarning,0839.2,5.00,000.00,031.8,027.2,000.0,039.1,030.9,33.7,0000.0,0004.46,0010.01,0003.65
2023-08-25 16:47:00,SystemResetWarning,0839.2,5.02,000.00,031.8,027.3,000.0,039.2,030.9,33.7,0000.0,0004.45,0010.29,0003.65
2023-08-25 16:48:00,SystemResetWarning,0839.2,4.99,000.00,031.8,027.4,000.0,039.2,031.0,33.6,0000.0,0004.42,0010.29,0003.67
2023-08-25 16:49:00,SystemResetWarning,0839.2,4.99,000.00,031.8,026.3,000.0,039.2,030.9,33.5,0000.0,0004.41,0010.16,0003.68
2023-08-25 16:50:00,SystemResetWarning,0839.2,5.01,000.00,031.8,025.0,000.0,039.1,030.7,33.7,0000.0,0004.37,0010.12,0003.66
2023-08-25 16:51:00,SystemResetWarning,0839.2,5.01,000.00,031.6,024.7,000.0,039.0,030.5,34.3,0000.0,0004.40,0010.26,0003.66
2023-08-25 16:52:00,SystemResetWarning,0839.2,4.99,000.00,031.4,024.9,000.0,039.1,030.4,35.2,0000.0,0004.34,0010.18,0003.67
2023-08-25 16:53:00,SystemResetWarning,0839.2,5.03,000.00,031.4,025.3,000.0,039.1,030.4,35.2,0000.0,0004.28,0010.06,0003.67
2023-08-25 16:54:00,SystemResetWarning,0839.2,4.96,000.00,031.5,025.7,000.0,039.1,030.6,34.9,0000.0,0004.33,0010.31,0003.69
2023-08-25 16:55:00,SystemResetWarning,0839.2,5.01,000.00,031.5,026.0,000.0,039.1,030.7,34.7,0000.0,0004.38,0010.63,0003.69
2023-08-25 16:56:00,SystemResetWarning,0839.2,5.01,000.00,031.6,026.3,000.0,039.2,030.7,34.8,0000.0,0004.37,0009.90,0003.67
2023-08-25 16:57:00,SystemResetWarning,0839.2,5.00,000.00,031.5,026.6,000.0,039.2,030.8,34.8,0000.0,0004.38,0009.70,0003.69
2023-08-25 16:58:00,SystemResetWarning,0839.2,5.00,000.00,031.5,026.8,000.0,039.2,030.8,34.9,0000.0,0004.37,0009.60,0003.71
2023-08-25 16:59:00,SystemResetWarning,0839.2,4.97,000.00,031.5,027.0,000.0,039.3,030.9,35.0,0000.0,0004.39,0009.54,0003.71
